Sensation — C6FM8 — position and weather

sailwx.info

Track history (hours):
 
Tides and Currents Weather Stations Pressure Air Temp Water Temp Dewpoint Dewpoint Depression Visibility Wind Speed Wind Dir Waves Ship Positions

Sensation

Last reported at 2017-Mar-26 03:07 UTC. Time now 2017-Mar-27 06:48 UTC.
Position N 20°40' W 086°55'.

Type: Passenger vessel. MMSI: 309697000.

Date/timePositionNaut miles runAvg speedWind from/ knotsBaromVisibWave heightAir tempDewpointWater temp
2017-Mar-26 03:07N 20°40' W 086°55'1017.1
2017-Mar-26 02:33N 20°32' W 087°01'4 3.5
2017-Mar-26 01:31N 20°29' W 086°59'0 0.0
2017-Mar-26 00:33N 20°29' W 086°59'0 0.0
2017-Mar-25 23:34N 20°29' W 086°59'0 0.0
2017-Mar-25 22:34N 20°29' W 086°59'0 0.0
2017-Mar-25 21:34N 20°29' W 086°59'0 0.0
2017-Mar-25 20:33N 20°29' W 086°59'0 0.0
2017-Mar-25 19:33N 20°29' W 086°59'0 0.0
2017-Mar-25 18:33N 20°29' W 086°59'0 0.0
2017-Mar-25 17:34N 20°29' W 086°59'0 0.0
2017-Mar-25 16:33N 20°29' W 086°59'0 0.4
2017-Mar-25 15:33N 20°29' W 086°59'10 9.5
2017-Mar-25 14:33N 20°38' W 086°55'48312.3
2017-Mar-23 23:25N 25°20' W 079°48'1214.6
2017-Mar-23 22:33N 25°32' W 079°49'1313.0
2017-Mar-23 21:33N 25°42' W 079°59'1110.7
2017-Mar-23 20:33N 25°46' W 080°10'1 0.5
2017-Mar-23 19:24N 25°47' W 080°10'0 0.0
2017-Mar-23 18:32N 25°47' W 080°10'0 0.0
2017-Mar-23 17:32N 25°47' W 080°10'0 0.0
2017-Mar-23 16:30N 25°47' W 080°10'0 0.0
2017-Mar-23 15:24N 25°47' W 080°10'0 0.0
2017-Mar-23 14:33N 25°47' W 080°10'0 0.0
2017-Mar-23 13:32N 25°47' W 080°10'0 0.0
2017-Mar-23 12:32N 25°47' W 080°10'0 0.2
2017-Mar-23 11:33N 25°47' W 080°10'6 5.9
2017-Mar-23 10:34N 25°46' W 080°04'1211.7
2017-Mar-23 09:33N 25°37' W 079°57'1817.5
2017-Mar-23 08:33N 25°19' W 079°57'  
2017-Mar-19 00:04N 25°20' W 079°50'815.7
2017-Mar-18 23:33N 25°28' W 079°52'1616.1
2017-Mar-18 22:34N 25°43' W 079°59'1111.1
2017-Mar-18 21:33N 25°47' W 080°11'0 0.4
2017-Mar-18 20:33N 25°47' W 080°10'0 0.0
2017-Mar-18 19:32N 25°47' W 080°10'0 0.0
2017-Mar-18 18:32N 25°47' W 080°10'0 0.0
2017-Mar-18 17:31N 25°47' W 080°10'0 0.0
2017-Mar-18 16:33N 25°47' W 080°10'0 0.0
2017-Mar-18 15:33N 25°47' W 080°10'0 0.0
2017-Mar-18 14:33N 25°47' W 080°10'0 0.0
2017-Mar-18 13:33N 25°47' W 080°10'0 0.0
2017-Mar-18 12:31N 25°47' W 080°10'0 0.0
2017-Mar-18 11:33N 25°47' W 080°10'6 6.4
2017-Mar-18 10:33N 25°46' W 080°03'1212.0
2017-Mar-18 09:33N 25°52' W 079°52'270 5.9
2017-Mar-16 12:00N 23°54' W 075°24'   020 / 211018.010.8 21.018.023.6
Track history (hours):
 
Tides and Currents Weather Stations Pressure Air Temp Water Temp Dewpoint Dewpoint Depression Visibility Wind Speed Wind Dir Waves Ship Positions

Sensation

Last reported at 2017-Mar-26 03:07 UTC. Time now 2017-Mar-27 06:48 UTC.
Position N 20°40' W 086°55'.

Type: Passenger vessel. MMSI: 309697000.

Date/timePositionNaut miles runAvg speedWind from/ knotsBaromVisibWave heightAir tempDewpointWater temp
2017-Mar-26 03:07N 20°40' W 086°55'1017.1
2017-Mar-26 02:33N 20°32' W 087°01'4 3.5
2017-Mar-26 01:31N 20°29' W 086°59'0 0.0
2017-Mar-26 00:33N 20°29' W 086°59'0 0.0
2017-Mar-25 23:34N 20°29' W 086°59'0 0.0
2017-Mar-25 22:34N 20°29' W 086°59'0 0.0
2017-Mar-25 21:34N 20°29' W 086°59'0 0.0
2017-Mar-25 20:33N 20°29' W 086°59'0 0.0
2017-Mar-25 19:33N 20°29' W 086°59'0 0.0
2017-Mar-25 18:33N 20°29' W 086°59'0 0.0
2017-Mar-25 17:34N 20°29' W 086°59'0 0.0
2017-Mar-25 16:33N 20°29' W 086°59'0 0.4
2017-Mar-25 15:33N 20°29' W 086°59'10 9.5
2017-Mar-25 14:33N 20°38' W 086°55'48312.3
2017-Mar-23 23:25N 25°20' W 079°48'1214.6
2017-Mar-23 22:33N 25°32' W 079°49'1313.0
2017-Mar-23 21:33N 25°42' W 079°59'1110.7
2017-Mar-23 20:33N 25°46' W 080°10'1 0.5
2017-Mar-23 19:24N 25°47' W 080°10'0 0.0
2017-Mar-23 18:32N 25°47' W 080°10'0 0.0
2017-Mar-23 17:32N 25°47' W 080°10'0 0.0
2017-Mar-23 16:30N 25°47' W 080°10'0 0.0
2017-Mar-23 15:24N 25°47' W 080°10'0 0.0
2017-Mar-23 14:33N 25°47' W 080°10'0 0.0
2017-Mar-23 13:32N 25°47' W 080°10'0 0.0
2017-Mar-23 12:32N 25°47' W 080°10'0 0.2
2017-Mar-23 11:33N 25°47' W 080°10'6 5.9
2017-Mar-23 10:34N 25°46' W 080°04'1211.7
2017-Mar-23 09:33N 25°37' W 079°57'1817.5
2017-Mar-23 08:33N 25°19' W 079°57'  
2017-Mar-19 00:04N 25°20' W 079°50'815.7
2017-Mar-18 23:33N 25°28' W 079°52'1616.1
2017-Mar-18 22:34N 25°43' W 079°59'1111.1
2017-Mar-18 21:33N 25°47' W 080°11'0 0.4
2017-Mar-18 20:33N 25°47' W 080°10'0 0.0
2017-Mar-18 19:32N 25°47' W 080°10'0 0.0
2017-Mar-18 18:32N 25°47' W 080°10'0 0.0
2017-Mar-18 17:31N 25°47' W 080°10'0 0.0
2017-Mar-18 16:33N 25°47' W 080°10'0 0.0
2017-Mar-18 15:33N 25°47' W 080°10'0 0.0
2017-Mar-18 14:33N 25°47' W 080°10'0 0.0
2017-Mar-18 13:33N 25°47' W 080°10'0 0.0
2017-Mar-18 12:31N 25°47' W 080°10'0 0.0
2017-Mar-18 11:33N 25°47' W 080°10'6 6.4
2017-Mar-18 10:33N 25°46' W 080°03'1212.0
2017-Mar-18 09:33N 25°52' W 079°52'270 5.9
2017-Mar-16 12:00N 23°54' W 075°24'   020 / 211018.010.8 21.018.023.6

Dump ship's entire track history